Flag for Japan Weather past 2 weeks in Yokohama, Japan

Now
77 °F

Clear.


Feels Like: 79 °F
Forecast: 73 / 82 °F
Wind: 8 mph from North

Location: Tokyo International Airport

Current Time: Sep 5, 2015 at 1:47:44 AM

Latest Report: Sep 5, 2015 at 1:00 AM


Visibility: 10 mi

Pressure: 29.77 "Hg

Humidity: 79%

Dew point: 70 °F

Location of YokohamaLocation

Historic Weather in Yokohama — Graph

°F

Yokohama temperature yesterday

Maximum temperature yesterday: 84 °F (at 12:30 PM)
Minimum temperature yesterday: 73 °F (at 2:00 AM)
Average temperature yesterday: 79 °F

Past Weeks' High & Low Weather Summary

 TemperatureHumidityPressure
High88 °F (Aug 22, 10:30 AM)100% (Aug 26, 4:30 AM)30.01 "Hg (Aug 26, 4:30 AM)
Low66 °F (Aug 26, 12:00 AM)58% (Aug 24, 12:30 PM)29.50 "Hg (Aug 22, 2:30 PM)
Average76 °F84%29.79 "Hg
* Reported Midnight between Aug 20 and Aug 21 — Sep 5 12:30 AM, Yokohama, Weather by CustomWeather, © 2015

Note: Actual official high and low records may vary slightly from our data, if they occured in-between our weather recording intervals... More about our weather records

Advertising

Yokohama weather history for previous 24 hours

 ConditionsComfort  
Time TempWeatherWind HumidityBarometerVisibility
12:30 AM
Sat, Sep 5
77 °FClear.8 mph74%29.77 "Hg10 mi
12:00 AM77 °FClear.5 mph74%29.77 "Hg10 mi
11:30 PM
Fri, Sep 4
77 °FClear.7 mph74%29.77 "Hg10 mi
11:00 PM77 °FClear.6 mph83%29.77 "Hg10 mi
10:30 PM79 °FClear.2 mph79%29.77 "Hg10 mi
10:00 PM79 °FClear.1 mph79%29.77 "Hg10 mi
9:30 PM79 °FClear.2 mph79%29.74 "Hg10 mi
9:00 PM81 °FClear.7 mph74%29.74 "Hg10 mi
8:30 PM81 °FPassing clouds.8 mph74%29.74 "HgN/A
8:00 PM81 °FPassing clouds.10 mph74%29.74 "HgN/A
7:30 PM79 °FPassing clouds.13 mph79%29.74 "HgN/A
7:00 PM81 °FPassing clouds.12 mph79%29.74 "HgN/A
6:30 PM81 °FPassing clouds.13 mph74%29.71 "HgN/A
6:00 PM81 °FScattered clouds.13 mph74%29.71 "HgN/A
5:30 PM82 °FScattered clouds.16 mph70%29.71 "HgN/A
5:00 PM82 °FScattered clouds.17 mph70%29.71 "HgN/A
4:30 PM84 °FPartly sunny.16 mph66%29.71 "HgN/A
4:00 PM84 °FPartly sunny.17 mph62%29.71 "HgN/A
3:30 PM84 °FPartly sunny.20 mph62%29.71 "HgN/A
3:00 PM82 °FThunderstorms. Partly sunny.14 mph70%29.71 "HgN/A
2:30 PM84 °FThunderstorms. Partly sunny.17 mph66%29.71 "HgN/A
2:00 PM84 °FPartly sunny.16 mph66%29.71 "HgN/A
1:30 PM84 °FPartly sunny.16 mph66%29.71 "HgN/A
1:00 PM84 °FPartly sunny.17 mph66%29.71 "HgN/A
12:30 PM84 °FPartly sunny.16 mph66%29.74 "HgN/A
12:00 PM82 °FPartly sunny.16 mph70%29.74 "HgN/A
11:30 AM81 °FPartly sunny.12 mph74%29.74 "HgN/A
11:00 AM82 °FPartly sunny.7 mph70%29.74 "HgN/A
10:30 AM81 °FPartly sunny.6 mph79%29.74 "HgN/A
10:00 AM81 °FPartly sunny.3 mph79%29.74 "HgN/A
9:30 AM79 °FPartly sunny.5 mph84%29.74 "HgN/A
9:00 AM79 °FPartly sunny.6 mph84%29.74 "HgN/A
8:30 AM77 °FBroken clouds.7 mph89%29.74 "HgN/A
8:00 AM79 °FBroken clouds.8 mph89%29.74 "HgN/A
7:30 AM77 °FBroken clouds.9 mph89%29.74 "HgN/A
6:30 AM75 °FSprinkles. Partly sunny.12 mph89%29.74 "HgN/A
6:00 AM75 °FSprinkles. Partly sunny.9 mph94%29.74 "HgN/A
5:30 AM75 °FBroken clouds.7 mph94%29.74 "HgN/A
5:00 AM75 °FPassing clouds.7 mph94%29.71 "HgN/A
4:30 AM75 °FPartly cloudy.8 mph94%29.71 "HgN/A
4:00 AM75 °FSprinkles. Partly cloudy.10 mph94%29.74 "HgN/A
3:30 AM73 °FSprinkles. Partly cloudy.18 mph94%29.74 "HgN/A
3:00 AM73 °FSprinkles. Partly cloudy.13 mph94%29.74 "HgN/A
2:30 AM73 °FSprinkles. Partly cloudy.10 mph94%29.77 "HgN/A
2:00 AM73 °FRain showers. Partly cloudy.14 mph94%29.77 "Hg6 mi
1:30 AM75 °FRain showers. Partly cloudy.16 mph89%29.77 "Hg5 mi
1:00 AM75 °FRain showers. Partly cloudy.16 mph94%29.77 "HgN/A
Weather by CustomWeather, © 2015

See weather overviewHow to use our weather pages